Location: Bakhuizen
(52.8696°N, 5.4575°E)
Time: 04:17:38
(UTC+00:00)

Nimbus 7 Rocket - Pass Details

Date: 05 October 2021
Orbit: 922 x 965 km, 99.4° (Epoch: 17 October)

Event Time Altitude Azimuth Distance (km) Brightness Sun altitude
Rises 00:52:45 0° 13° (NNE) 3,591 8.3 -38.7°
Reaches altitude 10° 00:55:21 10° 4° (N) 2,648 7.4 -38.5°
Enters shadow 00:58:13 25° 343° (NNW) 1,789 6.1 -38.3°
